sat.trackr.live / text

‹ back to catalog

EUTELSAT QUANTUM

NORAD 49056 · 2021-069B

PAYLOAD ACTIVE UNKNOWN

§ Identity

Operator
Country
EUTE
Launch date
2021-07-30
Launch site
FRGUI
Launch vehicle
Mass (kg)
RCS (m²)

Purposes: comms

External: N2YO · Heavens-Above · Gunter

§ Orbital elements

Epoch: 2026-05-25T03:58:15.953088Z

Period
1,436.08 min
Inclination
0.0167°
Eccentricity
0.0002309
Mean motion
1.00272704 rev/d
Perigee alt
35,776.6 km
Apogee alt
35,796.1 km
Semi-major
42,164.5 km
B*
0.0000e+0
RAAN
11.2469°
Arg perigee
49.2162°
Mean anomaly
289.5579°
Rev number
1,769

§ Raw data

EUTELSAT QUANTUM1 49056U 21069B   26145.16546242  .00000124  00000+0  00000+0 0  99952 49056   0.0167  11.2469 0002309  49.2162 289.5579  1.00272704 17692

JSON: /api/v1/satellites/49056 · /tle

For live sub-satellite position, see the globe view (requires WebGL).

§ Visibility from observer

Set your observer location to see the next 7 days of passes ≥ 10°. The values pass through the URL so the page stays shareable.

No JS? Fill the form by hand. The geolocation button needs JavaScript.